When you browse on this site, cookies collect data to enhance your experience and personalize the content and advertising you see.
Visit our Privacy Policy to learn more. By continuing to use the site, you agree to this use of cookies and data.
EN

Hourly Weather Makadi Bey

Today, 13 July, Monday

Time Temperature Precipitation Wind Pressure Humidity
00:00 +27°C° 0 mm 2 mps 699 mmHg 23%
01:00 +26°C° 0 mm 2 mps 699 mmHg 25%
02:00 +25°C° 0 mm 2 mps 698 mmHg 29%
03:00 +24°C° 0 mm 2 mps 699 mmHg 32%
04:00 +23°C° 0 mm 1 mps 699 mmHg 35%
05:00 +23°C° 0 mm 1 mps 699 mmHg 39%
06:00 +26°C° 0 mm 2 mps 699 mmHg 33%
07:00 +28°C° 0 mm 2 mps 700 mmHg 27%
08:00 +32°C° 0 mm 2 mps 700 mmHg 20%
09:00 +34°C° 0 mm 2 mps 700 mmHg 17%
10:00 +36°C° 0 mm 3 mps 700 mmHg 13%
11:00 +38°C° 0 mm 3 mps 701 mmHg 10%
12:00 +40°C° 0 mm 4 mps 700 mmHg 9%
13:00 +40°C° 0 mm 5 mps 700 mmHg 8%
14:00 +41°C° 0 mm 5 mps 700 mmHg 9%
15:00 +40°C° 0 mm 5 mps 700 mmHg 9%
16:00 +40°C° 0 mm 5 mps 700 mmHg 10%
17:00 +39°C° 0 mm 5 mps 700 mmHg 10%
18:00 +35°C° 0 mm 4 mps 699 mmHg 16%
19:00 +31°C° 0 mm 3 mps 699 mmHg 21%
20:00 +28°C° 0 mm 2 mps 698 mmHg 26%
21:00 +27°C° 0 mm 1 mps 699 mmHg 27%
22:00 +26°C° 0 mm 1 mps 699 mmHg 28%
23:00 +25°C° 0 mm 1 mps 699 mmHg 30%

Tomorrow, 14 July, Tuesday

Time Temperature Precipitation Wind Pressure Humidity
00:00 +25°C° 0 mm 1 mps 699 mmHg 30%
01:00 +25°C° 0 mm 1 mps 699 mmHg 30%
02:00 +24°C° 0 mm 1 mps 699 mmHg 30%
03:00 +24°C° 0 mm 1 mps 699 mmHg 32%
04:00 +21°C° 0 mm 0 mps 699 mmHg 33%
05:00 +21°C° 0 mm 0 mps 699 mmHg 35%
06:00 +24°C° 0 mm 0 mps 700 mmHg 30%
07:00 +27°C° 0 mm 0 mps 701 mmHg 24%
08:00 +30°C° 0 mm 0 mps 702 mmHg 19%
09:00 +34°C° 0 mm 1 mps 702 mmHg 17%
10:00 +36°C° 0 mm 2 mps 702 mmHg 14%
11:00 +38°C° 0 mm 2 mps 703 mmHg 12%
12:00 +38°C° 0 mm 3 mps 702 mmHg 12%
13:00 +39°C° 0 mm 3 mps 702 mmHg 11%
14:00 +40°C° 0 mm 4 mps 702 mmHg 11%
15:00 +40°C° 0 mm 4 mps 702 mmHg 12%
16:00 +40°C° 0 mm 4 mps 702 mmHg 12%
17:00 +38°C° 0 mm 4 mps 701 mmHg 13%
18:00 +36°C° 0 mm 3 mps 701 mmHg 17%
19:00 +33°C° 0 mm 3 mps 701 mmHg 22%
20:00 +29°C° 0 mm 2 mps 701 mmHg 26%
21:00 +28°C° 0 mm 1 mps 701 mmHg 26%
22:00 +27°C° 0 mm 1 mps 701 mmHg 27%
23:00 +25°C° 0 mm 0 mps 701 mmHg 28%

Day after tomorrow, 15 July, Wednesday

Time Temperature Precipitation Wind Pressure Humidity
00:00 +24°C° 0 mm 0 mps 701 mmHg 29%
01:00 +24°C° 0 mm 0 mps 701 mmHg 29%
02:00 +23°C° 0 mm 0 mps 701 mmHg 29%
03:00 +25°C° 0 mm 1 mps 701 mmHg 29%
04:00 +25°C° 0 mm 1 mps 701 mmHg 29%
05:00 +24°C° 0 mm 1 mps 702 mmHg 28%
06:00 +27°C° 0 mm 1 mps 702 mmHg 24%
07:00 +31°C° 0 mm 1 mps 703 mmHg 20%
08:00 +32°C° 0 mm 0 mps 704 mmHg 16%
09:00 +35°C° 0 mm 1 mps 704 mmHg 15%
10:00 +38°C° 0 mm 2 mps 704 mmHg 13%
11:00 +40°C° 0 mm 2 mps 705 mmHg 11%
12:00 +40°C° 0 mm 3 mps 704 mmHg 12%
13:00 +42°C° 0 mm 3 mps 704 mmHg 12%
14:00 +42°C° 0 mm 3 mps 703 mmHg 13%
15:00 +42°C° 0 mm 4 mps 703 mmHg 13%
16:00 +41°C° 0 mm 4 mps 703 mmHg 13%
17:00 +41°C° 0 mm 4 mps 702 mmHg 14%
18:00 +37°C° 0 mm 3 mps 702 mmHg 17%
19:00 +34°C° 0 mm 2 mps 702 mmHg 20%
20:00 +30°C° 0 mm 1 mps 702 mmHg 22%
21:00 +30°C° 0 mm 1 mps 702 mmHg 22%
22:00 +30°C° 0 mm 2 mps 702 mmHg 22%
23:00 +30°C° 0 mm 3 mps 702 mmHg 21%

16 July, Thursday

Time Temperature Precipitation Wind Pressure Humidity
00:00 +29°C° 0 mm 2 mps 701 mmHg 22%
01:00 +28°C° 0 mm 2 mps 701 mmHg 23%
02:00 +27°C° 0 mm 2 mps 701 mmHg 24%
03:00 +27°C° 0 mm 1 mps 701 mmHg 26%
04:00 +26°C° 0 mm 1 mps 701 mmHg 28%
05:00 +25°C° 0 mm 1 mps 700 mmHg 29%
06:00 +29°C° 0 mm 1 mps 701 mmHg 25%
07:00 +32°C° 0 mm 1 mps 702 mmHg 20%
08:00 +35°C° 0 mm 1 mps 702 mmHg 16%
09:00 +38°C° 0 mm 2 mps 702 mmHg 14%
10:00 +39°C° 0 mm 3 mps 702 mmHg 12%
11:00 +42°C° 0 mm 4 mps 702 mmHg 10%
12:00 +42°C° 0 mm 5 mps 702 mmHg 10%
13:00 +43°C° 0 mm 5 mps 702 mmHg 10%
14:00 +44°C° 0 mm 6 mps 701 mmHg 11%
15:00 +44°C° 0 mm 6 mps 701 mmHg 11%
16:00 +42°C° 0 mm 5 mps 701 mmHg 11%
17:00 +42°C° 0 mm 5 mps 700 mmHg 12%
18:00 +39°C° 0 mm 5 mps 700 mmHg 15%
19:00 +36°C° 0 mm 6 mps 700 mmHg 19%
20:00 +34°C° 0 mm 6 mps 700 mmHg 23%
21:00 +33°C° 0 mm 6 mps 700 mmHg 25%
22:00 +32°C° 0 mm 5 mps 700 mmHg 26%
23:00 +29°C° 0 mm 5 mps 700 mmHg 28%

17 July, Friday

Time Temperature Precipitation Wind Pressure Humidity
00:00 +28°C° 0 mm 4 mps 699 mmHg 31%
01:00 +27°C° 0 mm 3 mps 699 mmHg 33%
02:00 +26°C° 0 mm 2 mps 699 mmHg 36%
03:00 +26°C° 0 mm 2 mps 699 mmHg 38%
04:00 +25°C° 0 mm 1 mps 699 mmHg 40%
05:00 +25°C° 0 mm 1 mps 699 mmHg 42%
06:00 +27°C° 0 mm 1 mps 699 mmHg 36%
07:00 +30°C° 0 mm 1 mps 700 mmHg 31%
08:00 +33°C° 0 mm 1 mps 701 mmHg 25%
09:00 +35°C° 0 mm 2 mps 701 mmHg 23%
10:00 +37°C° 0 mm 3 mps 701 mmHg 21%
11:00 +38°C° 0 mm 4 mps 701 mmHg 19%
12:00 +40°C° 0 mm 4 mps 701 mmHg 18%
13:00 +41°C° 0 mm 4 mps 701 mmHg 17%
14:00 +41°C° 0 mm 4 mps 700 mmHg 16%
15:00 +41°C° 0 mm 4 mps 700 mmHg 16%
16:00 +40°C° 0 mm 4 mps 700 mmHg 16%
17:00 +40°C° 0 mm 4 mps 700 mmHg 16%
18:00 +37°C° 0 mm 4 mps 700 mmHg 19%
19:00 +34°C° 0 mm 3 mps 700 mmHg 22%
20:00 +31°C° 0 mm 3 mps 700 mmHg 25%
21:00 +30°C° 0 mm 3 mps 700 mmHg 26%
22:00 +29°C° 0 mm 2 mps 700 mmHg 27%
23:00 +27°C° 0 mm 1 mps 700 mmHg 28%

18 July, Saturday

Time Temperature Precipitation Wind Pressure Humidity
00:00 +27°C° 0 mm 1 mps 700 mmHg 29%
01:00 +26°C° 0 mm 1 mps 700 mmHg 30%
02:00 +25°C° 0 mm 1 mps 699 mmHg 31%
03:00 +25°C° 0 mm 1 mps 700 mmHg 35%
04:00 +25°C° 0 mm 1 mps 700 mmHg 38%
05:00 +24°C° 0 mm 1 mps 700 mmHg 41%
06:00 +27°C° 0 mm 1 mps 700 mmHg 37%
07:00 +29°C° 0 mm 1 mps 701 mmHg 33%
08:00 +31°C° 0 mm 1 mps 702 mmHg 29%
09:00 +34°C° 0 mm 2 mps 702 mmHg 25%
10:00 +36°C° 0 mm 2 mps 702 mmHg 22%
11:00 +37°C° 0 mm 3 mps 702 mmHg 19%
12:00 +38°C° 0 mm 3 mps 702 mmHg 19%
13:00 +39°C° 0 mm 3 mps 701 mmHg 18%
14:00 +39°C° 0 mm 3 mps 701 mmHg 18%
15:00 +39°C° 0 mm 3 mps 701 mmHg 19%
16:00 +38°C° 0 mm 3 mps 701 mmHg 20%
17:00 +37°C° 0 mm 3 mps 700 mmHg 22%
18:00 +35°C° 0 mm 3 mps 701 mmHg 25%
19:00 +32°C° 0 mm 2 mps 701 mmHg 28%
20:00 +30°C° 0 mm 2 mps 701 mmHg 32%
21:00 +29°C° 0 mm 1 mps 701 mmHg 33%
22:00 +28°C° 0 mm 1 mps 701 mmHg 34%
23:00 +27°C° 0 mm 1 mps 701 mmHg 35%
Show more